Regional Weather Roundup
Issued by NWS Kansas City/Pleasant Hill, MO

Home | Current Version | Previous Version | Graphics & Text | Print | Product List | Glossary Off
Versions: 1 2 3 4 5 6 7 8 9 10 11 12 13 14 15 16 17 18 19 20 21 22 23 24 25 26 27

000
ASUS43 KEAX 201510
RWREAX

WEATHER ROUNDUP FOR EASTERN KANSAS AND NORTHWEST MISSOURI
NATIONAL WEATHER SERVICE KANSAS CITY/PLEASANT HILL MO
900 AM CST SAT JAN 20 2018

KSZ040-057-103>105-MOZ028-029-037-043-201600-
...KANSAS CITY METROPOLITAN AREA...

CITY           SKY/WX    TMP DP  RH WIND       PRES   REMARKS
K.C. INTL      CLOUDY    47  43  86 S10       29.89R
K.C. DOWNTOWN  CLOUDY    49  42  77 S7        29.89S
LEES SUMMIT    CLOUDY    48  44  86 S12       29.91R
OLATHE - IXD   CLOUDY    47  43  86 S8        29.90R
OLATHE - OJC   CLOUDY    46  43  89 S8        29.90R
LAWRENCE       CLOUDY    45  42  89 SE6       29.88S FOG

$$

MOZ001>008-011>017-020>025-030>033-038>040-044>046-053-054-201600-
...NORTHERN AND CENTRAL MISSOURI...

CITY           SKY/WX    TMP DP  RH WIND       PRES   REMARKS
ST. JOSEPH     CLOUDY    39  39 100 S3        29.88S FOG
MOSBY          CLOUDY    45  41  87 S3        29.91R
WARRENSBURG    CLOUDY    45  41  87 S5        29.93R
WHITEMAN AFB   CLOUDY    45  41  86 SW8       29.89R
CLINTON        CLOUDY    46  43  87 S6        29.95R
SEDALIA        CLOUDY    50  46  86 SW13      29.94R
WARSAW         NOT AVBL
CHILLICOTHE      N/A     43  39  86 S3        29.92R
KIRKSVILLE     CLOUDY    42  40  92 SW8       29.93R

$$

MOZ041-047>049-056>058-063>065-088>090-097-201600-
...EASTERN AND SOUTHERN MISSOURI...

CITY           SKY/WX    TMP DP  RH WIND       PRES   REMARKS
ST. LOUIS INTL MOSUNNY   41  32  70 SE3       30.01R
SPIRIT OF STL  SUNNY     46  37  71 SW14      30.00R
COLUMBIA       CLOUDY    41  38  89 S7        29.97R
JEFFERSON CITY CLOUDY    36  33  89 CALM      29.98R
ROLLA          CLOUDY    45  40  82 S14       29.99R
OSAGE BEACH    CLOUDY    40  37  89 SE5       29.98S
SPRINGFIELD    CLOUDY    47  41  80 S13       29.96S
BRANSON        PTSUNNY   46  41  81 CALM      30.01R
JOPLIN         CLOUDY    51  48  89 S13       29.95R
WEST PLAINS    CLOUDY    39  29  67 S7        30.05S WCI  34

$$

IAZ060-094-KSZ022-034>040-054-083-096-NEZ052-066-093-201600-
...KANSAS...SOUTHEAST NEBRASKA AND IOWA...

CITY           SKY/WX    TMP DP  RH WIND       PRES   REMARKS
TOPEKA         CLOUDY    46  43  89 SE5       29.86S
MANHATTAN      CLOUDY    50  44  80 S5        29.83R
EMPORIA        CLOUDY    46  43  89 S12       29.85S
CHANUTE        CLOUDY    49  44  83 S13       29.91R
WICHITA        CLOUDY    49  46  90 S15       29.82R
OMAHA          CLOUDY    28  25  88 CALM      29.85R
LINCOLN        MOSUNNY   26  22  84 N5        29.85R WCI  20
FALLS CITY     CLOUDY    38  35  89 SE3       29.86R
LAMONI         CLOUDY    40  38  93 SW13      29.87R FOG     WCI  32
DES MOINES     CLOUDY    32  28  85 S3        29.87R

$$





USA.gov is the U.S. government's official web portal to all federal, state and local government web resources and services.